Flag for Germany Weather past 2 weeks in Jülich, North Rhine-Westphalia, Germany

Now
53 °F

Cool.


Feels Like: 53 °F
Forecast: 47 / 59 °F
Wind: 2 mph from South

Location: Noervenich

Current Time: May 25, 2015 at 11:49:17 AM

Latest Report: May 25, 2015 at 10:00 AM


Visibility: 4 mi

Pressure: 30.01 "Hg

Humidity: 90%

Dew point: 50 °F

Location of JülichLocation

Historic Weather in Jülich — Graph

°F

Jülich temperature yesterday

Maximum temperature yesterday: 67 °F (at 6:00 PM)
Minimum temperature yesterday: 51 °F (at 7:00 AM)
Average temperature yesterday: 58 °F

Past Weeks' High & Low Weather Summary

 TemperatureHumidityPressure
High80 °F (May 11, 4:00 PM)95% (May 15, 12:00 AM)30.35 "Hg (May 15, 12:00 AM)
Low38 °F (May 21, 6:00 AM)31% (May 11, 4:00 PM)29.65 "Hg (May 18, 8:00 PM)
Average56 °F67%30.09 "Hg
* Reported May 10 10:00 AM — May 25 10:00 AM, Jülich, Weather by CustomWeather, © 2015

Note: Actual official high and low records may vary slightly from our data, if they occured in-between our weather recording intervals... More about our weather records

Advertising

Jülich weather history for previous 24 hours

 ConditionsComfort  
Time TempWeatherWind HumidityBarometerVisibility
10:00 AM
Mon, May 25
53 °FCool.2 mph90%30.01 "Hg4 mi
9:00 AM53 °FCool.1 mph87%30.01 "Hg2 mi
8:00 AM54 °FCool.2 mph71%30.01 "Hg6 mi
7:00 AM53 °FCool.2 mph72%30.01 "Hg5 mi
6:00 AM51 °FCool.2 mph75%30.01 "Hg4 mi
4:00 AM49 °FCool.1 mph74%30.03 "Hg5 mi
3:00 AM51 °FCool.1 mph66%30.03 "Hg5 mi
2:00 AM52 °FCool.3 mph66%30.04 "Hg5 mi
1:00 AM55 °FCool.2 mph58%30.04 "Hg6 mi
12:00 AM55 °FCool.3 mph69%30.05 "Hg6 mi
10:00 PM
Sun, May 24
59 °FCool.1 mph63%30.04 "Hg6 mi
9:00 PM64 °FMild.2 mph53%30.03 "Hg7 mi
7:00 PM66 °FMild.2 mph48%30.03 "Hg6 mi
6:00 PM67 °FMild.2 mph49%30.04 "Hg6 mi
4:00 PM67 °FMild.2 mph50%30.07 "Hg6 mi
3:00 PM65 °FMild.2 mph53%30.08 "Hg6 mi
1:00 PM64 °FMild.N/A57%30.10 "Hg6 mi
12:00 PM61 °FCool.1 mph60%30.12 "Hg4 mi
Weather by CustomWeather, © 2015

See weather overviewHow to use our weather pages